Previsão horária em Senlis

Hoje, 3 Dezembro, Quinta-feira

Tempo Temperatura Precipitação Vento Pressão Humidade
00:00 +4°C° 0 mm 3 m/s 750 mmHg 86%
01:00 +4°C° 0 mm 3 m/s 749 mmHg 86%
02:00 +4°C° 0 mm 4 m/s 748 mmHg 86%
03:00 +5°C° 0 mm 4 m/s 747 mmHg 86%
04:00 +5°C° 0.1 mm 4 m/s 747 mmHg 88%
05:00 +5°C° 0.1 mm 3 m/s 746 mmHg 90%
06:00 +5°C° 0.1 mm 3 m/s 745 mmHg 92%
07:00 +5°C° 0 mm 3 m/s 745 mmHg 89%
08:00 +5°C° 0 mm 4 m/s 744 mmHg 86%
09:00 +5°C° 0 mm 4 m/s 743 mmHg 83%
10:00 +5°C° 0 mm 5 m/s 742 mmHg 80%
11:00 +6°C° 0 mm 5 m/s 741 mmHg 77%
12:00 +5°C° 0 mm 6 m/s 740 mmHg 75%
13:00 +5°C° 0.6 mm 6 m/s 739 mmHg 79%
14:00 +4°C° 0.6 mm 7 m/s 737 mmHg 83%
15:00 +4°C° 0.6 mm 7 m/s 736 mmHg 87%
16:00 +4°C° 0.5 mm 7 m/s 735 mmHg 87%
17:00 +4°C° 0.5 mm 8 m/s 733 mmHg 87%
18:00 +5°C° 0.5 mm 8 m/s 732 mmHg 87%
19:00 +5°C° 1.2 mm 7 m/s 731 mmHg 86%
20:00 +5°C° 1.2 mm 6 m/s 731 mmHg 86%
21:00 +6°C° 1.2 mm 5 m/s 730 mmHg 86%
22:00 +6°C° 0.1 mm 5 m/s 729 mmHg 87%
23:00 +5°C° 0.1 mm 4 m/s 728 mmHg 88%

Amanhã, 4 Dezembro, Sexta-feira

Tempo Temperatura Precipitação Vento Pressão Humidade
00:00 +5°C° 0.1 mm 3 m/s 728 mmHg 89%
01:00 +5°C° 1.3 mm 5 m/s 727 mmHg 87%
02:00 +4°C° 1.3 mm 6 m/s 726 mmHg 86%
03:00 +5°C° 1.3 mm 7 m/s 725 mmHg 85%
04:00 +4°C° 0.1 mm 7 m/s 726 mmHg 82%
05:00 +4°C° 0.1 mm 8 m/s 726 mmHg 78%
06:00 +2°C° 0.1 mm 8 m/s 726 mmHg 75%
07:00 +2°C° 0.2 mm 8 m/s 726 mmHg 76%
08:00 +2°C° 0.2 mm 8 m/s 727 mmHg 78%
09:00 +2°C° 0.2 mm 9 m/s 728 mmHg 79%
10:00 +2°C° 0.2 mm 8 m/s 728 mmHg 76%
11:00 +4°C° 0.2 mm 7 m/s 729 mmHg 73%
12:00 +4°C° 0.2 mm 6 m/s 730 mmHg 70%
13:00 +4°C° 0.1 mm 6 m/s 730 mmHg 70%
14:00 +5°C° 0.1 mm 5 m/s 731 mmHg 70%
15:00 +4°C° 0.1 mm 4 m/s 731 mmHg 70%
16:00 +4°C° 0 mm 4 m/s 731 mmHg 71%
17:00 +4°C° 0 mm 4 m/s 732 mmHg 73%
18:00 +3°C° 0 mm 4 m/s 732 mmHg 74%
19:00 +3°C° 0 mm 3 m/s 733 mmHg 76%
20:00 +2°C° 0 mm 3 m/s 733 mmHg 78%
21:00 +2°C° 0 mm 3 m/s 733 mmHg 80%
22:00 +1°C° 0 mm 3 m/s 733 mmHg 82%
23:00 +1°C° 0 mm 3 m/s 734 mmHg 83%

Depois de amanhã, 5 Dezembro, Sábado

Tempo Temperatura Precipitação Vento Pressão Humidade
00:00 +1°C° 0 mm 3 m/s 734 mmHg 85%
01:00 0°C° 0 mm 3 m/s 734 mmHg 86%
02:00 0°C° 0 mm 3 m/s 735 mmHg 87%
03:00 0°C° 0 mm 3 m/s 735 mmHg 88%
04:00 0°C° 0 mm 3 m/s 735 mmHg 87%
05:00 -1°C° 0 mm 2 m/s 736 mmHg 87%
06:00 -1°C° 0 mm 2 m/s 736 mmHg 86%
07:00 0°C° 0 mm 3 m/s 736 mmHg 85%
08:00 0°C° 0 mm 3 m/s 737 mmHg 84%
09:00 +1°C° 0 mm 3 m/s 737 mmHg 83%
10:00 +1°C° 0 mm 3 m/s 737 mmHg 78%
11:00 +1°C° 0 mm 4 m/s 737 mmHg 73%
12:00 +3°C° 0 mm 4 m/s 737 mmHg 68%
13:00 +3°C° 0 mm 4 m/s 737 mmHg 68%
14:00 +3°C° 0 mm 3 m/s 737 mmHg 68%
15:00 +3°C° 0 mm 3 m/s 737 mmHg 68%
16:00 +2°C° 0 mm 3 m/s 737 mmHg 73%
17:00 +2°C° 0 mm 3 m/s 737 mmHg 79%
18:00 +1°C° 0 mm 3 m/s 736 mmHg 85%
19:00 +1°C° 0 mm 3 m/s 736 mmHg 85%
20:00 +1°C° 0 mm 3 m/s 736 mmHg 85%
21:00 +1°C° 0 mm 3 m/s 736 mmHg 86%
22:00 0°C° 0 mm 4 m/s 736 mmHg 86%
23:00 0°C° 0 mm 4 m/s 736 mmHg 86%

6 Dezembro, Domingo

Tempo Temperatura Precipitação Vento Pressão Humidade
00:00 0°C° 0 mm 5 m/s 736 mmHg 86%
01:00 0°C° 0.1 mm 5 m/s 735 mmHg 88%
02:00 0°C° 0.1 mm 5 m/s 735 mmHg 90%
03:00 0°C° 0.1 mm 5 m/s 735 mmHg 93%
04:00 0°C° 0.5 mm 5 m/s 735 mmHg 93%
05:00 +1°C° 0.5 mm 5 m/s 735 mmHg 93%
06:00 +1°C° 0.5 mm 5 m/s 735 mmHg 93%
07:00 +1°C° 0.6 mm 4 m/s 735 mmHg 92%
08:00 +1°C° 0.6 mm 4 m/s 735 mmHg 91%
09:00 +2°C° 0.6 mm 3 m/s 735 mmHg 90%
10:00 +2°C° 0.2 mm 3 m/s 736 mmHg 90%
11:00 +2°C° 0.2 mm 3 m/s 736 mmHg 90%
12:00 +3°C° 0.2 mm 3 m/s 736 mmHg 90%
13:00 +3°C° 0.2 mm 3 m/s 736 mmHg 89%
14:00 +3°C° 0.2 mm 3 m/s 736 mmHg 88%
15:00 +3°C° 0.2 mm 2 m/s 736 mmHg 87%
16:00 +3°C° 0.2 mm 2 m/s 737 mmHg 89%
17:00 +3°C° 0.2 mm 2 m/s 737 mmHg 91%
18:00 +2°C° 0.2 mm 2 m/s 737 mmHg 93%
19:00 +2°C° 0.1 mm 2 m/s 738 mmHg 93%
20:00 +2°C° 0.1 mm 2 m/s 738 mmHg 92%
21:00 +3°C° 0.1 mm 2 m/s 739 mmHg 92%
22:00 +3°C° 0.1 mm 2 m/s 739 mmHg 92%
23:00 +4°C° 0.1 mm 1 m/s 739 mmHg 92%

7 Dezembro, Segunda-feira

Tempo Temperatura Precipitação Vento Pressão Humidade
00:00 +4°C° 0.1 mm 1 m/s 740 mmHg 91%
01:00 +3°C° 0.1 mm 1 m/s 740 mmHg 91%
02:00 +3°C° 0.1 mm 1 m/s 740 mmHg 91%
03:00 +3°C° 0.1 mm 1 m/s 740 mmHg 91%
04:00 +3°C° 0 mm 1 m/s 741 mmHg 91%
05:00 +2°C° 0 mm 1 m/s 741 mmHg 92%
06:00 +2°C° 0 mm 1 m/s 741 mmHg 92%
07:00 +1°C° 0 mm 2 m/s 742 mmHg 91%
08:00 +2°C° 0 mm 2 m/s 742 mmHg 89%
09:00 +1°C° 0 mm 3 m/s 743 mmHg 88%
10:00 +2°C° 0 mm 3 m/s 743 mmHg 83%
11:00 +3°C° 0 mm 4 m/s 743 mmHg 79%
12:00 +4°C° 0 mm 4 m/s 743 mmHg 75%
13:00 +3°C° 0 mm 4 m/s 743 mmHg 75%
14:00 +3°C° 0 mm 4 m/s 743 mmHg 75%
15:00 +3°C° 0 mm 3 m/s 743 mmHg 75%
16:00 +3°C° 0.4 mm 4 m/s 743 mmHg 81%
17:00 +3°C° 0.4 mm 4 m/s 743 mmHg 86%
18:00 +2°C° 0.4 mm 5 m/s 743 mmHg 91%
19:00 +2°C° 1.8 mm 5 m/s 743 mmHg 92%
20:00 +3°C° 1.8 mm 5 m/s 743 mmHg 92%
21:00 +3°C° 1.8 mm 5 m/s 743 mmHg 92%
22:00 +3°C° 0.2 mm 5 m/s 743 mmHg 91%
23:00 +3°C° 0.2 mm 5 m/s 743 mmHg 90%

8 Dezembro, Terça-feira

Tempo Temperatura Precipitação Vento Pressão Humidade
00:00 +4°C° 0.2 mm 4 m/s 742 mmHg 89%
01:00 +4°C° 0 mm 4 m/s 742 mmHg 90%
02:00 +4°C° 0 mm 4 m/s 742 mmHg 90%
03:00 +3°C° 0 mm 4 m/s 742 mmHg 91%
04:00 +3°C° 0 mm 4 m/s 742 mmHg 92%
05:00 +2°C° 0 mm 5 m/s 742 mmHg 92%
06:00 +2°C° 0 mm 5 m/s 742 mmHg 93%
07:00 +3°C° 0 mm 5 m/s 742 mmHg 90%
08:00 +3°C° 0 mm 5 m/s 742 mmHg 87%
09:00 +3°C° 0 mm 5 m/s 741 mmHg 85%
10:00 +5°C° 0.1 mm 5 m/s 741 mmHg 82%
11:00 +4°C° 0.1 mm 6 m/s 741 mmHg 79%
12:00 +5°C° 0.1 mm 6 m/s 740 mmHg 77%
13:00 +5°C° 0.7 mm 5 m/s 740 mmHg 81%
14:00 +5°C° 0.7 mm 5 m/s 740 mmHg 85%
15:00 +3°C° 0.7 mm 5 m/s 740 mmHg 89%
16:00 +4°C° 0.2 mm 4 m/s 740 mmHg 90%
17:00 +4°C° 0.2 mm 3 m/s 740 mmHg 91%
18:00 +4°C° 0.2 mm 3 m/s 740 mmHg 92%
19:00 +4°C° 0.1 mm 3 m/s 740 mmHg 93%
20:00 +4°C° 0.1 mm 3 m/s 741 mmHg 93%
21:00 +5°C° 0.1 mm 2 m/s 741 mmHg 93%
22:00 +5°C° 0.1 mm 2 m/s 741 mmHg 94%
23:00 +5°C° 0.1 mm 2 m/s 741 mmHg 94%
Mostrar mais

Necessitamos do seu Consentimento

A Meteoprog e os seus Fornecedores de Serviços podem armazenar e aceder a dados pessoais como cookies, identificadores do dispositivo ou outras tecnologias semelhantes existentes no seu dispositivo e processar estes dados para personalizar conteúdos e anúncios, assim como funcionalidades nas redes sociais e análise de tráfego.

  • Armazenar e/ou aceder a informações no seu dispositivo

    Os cookies, identificadores do dispositivo ou outras informações podem ser armazenados ou acedidos no seu dispositivo, para os fins acima indicados.

  • Anúncios e conteúdos personalizados, medição de anúncios e conteúdos, dados sobre o público-alvo e desenvolvimento de produtos

    Os anúncios e os conteúdos podem ser personalizados com base num perfil. Podem ser adicionados dados adicionais para uma maior personalização dos anúncios e dos conteúdos. A eficácia dos anúncios e dos conteúdos pode ser medida. Podem ser obtidas informações sobre o público que visualizou os anúncios e os conteúdos. Estes dados podem ser usados para desenvolver ou melhorar sistemas, softwares ou a experiência do utilizador.

Ao clicar em "Eu concordo”, permitirá o uso de cookies, identificadores do dispositivo e web beacons mencionados ou outras tecnologias semelhantes. As configurações do navegador do seu dispositivo podem ser alteradas.

Para certos fins, podem ser invocados interesses legítimos ao invés de consentimento. Pode ler mais informação sobre este assunto na nossa Política de Privacidade e Cookies.